Location: Gazon
(48.1318°N, 1.2708°W)
Time: 02:09:51
(UTC+00:00)

Cosmos 2016 Rocket - Pass Details

Date: 18 September 2020
Orbit: 946 x 1001 km, 83.0° (Epoch: 29 October)

Event Time Altitude Azimuth Distance (km) Brightness Sun altitude
Rises 18:28:09 0° 194° (SSW) 3,697 7.1 -3.8°
Reaches altitude 10° 18:30:42 10° 196° (SSW) 2,746 6.5 -4.2°
Maximum altitude 18:36:59 71° 281° (W) 1,037 4.5 -5.2°
Drops below altitude 10° 18:43:14 10° 5° (N) 2,727 6.4 -6.3°
Sets 18:45:45 0° 8° (N) 3,670 7.0 -6.7°
